Location: Castillon
(43.0896°N, 0.2156°E)
Time: 15:05:28
(UTC+00:00)

Cosmos 2285 Rocket - Pass Details

Date: 16 June 2021
Orbit: 971 x 998 km, 74.0° (Epoch: 01 August)

Event Time Altitude Azimuth Distance (km) Brightness Sun altitude
Rises 20:34:08 0° 196° (SSW) 3,703 6.8 -8.4°
Reaches altitude 10° 20:36:40 10° 196° (SSW) 2,758 6.1 -8.8°
Maximum altitude 20:43:05 85° 109° (ESE) 1,008 4.1 -9.6°
Drops below altitude 10° 20:49:33 10° 22° (NNE) 2,771 6.7 -10.4°
Sets 20:52:06 0° 22° (NNE) 3,721 7.4 -10.7°
